EW9030 Weather Reports


time (UTC)temp
C
wind
direction
speed
KPH
gust
KPH
rain 1hr
cm
rain 24hr
cm
rain mn
cm
humidity
%
barometer
mb
20260906222329 26 236 8.0 25.7 0.00 0.00 0.00 25 1026.1
20260906221826 26 231 6.4 22.5 0.00 0.00 0.00 25 1026.2
20260906221327 26 203 8.0 19.3 0.00 0.00 0.00 26 1026.1
20260906220824 26 253 9.7 24.1 0.00 0.00 0.00 25 1026.2
20260906220325 26 242 9.7 24.1 0.00 0.00 0.00 25 1026.2
20260906220056 26 193 9.7 25.7 0.00 0.00 0.00 26 1026.5
20260906215324 26 194 9.7 25.7 0.00 0.00 0.00 26 1026.5
20260906214827 26 180 9.7 25.7 0.00 0.00 0.00 26 1026.6
20260906214319 26 232 11.3 25.7 0.00 0.00 0.00 25 1026.8
20260906213821 26 223 11.3 20.9 0.00 0.00 0.00 24 1026.8
20260906213320 26 182 9.7 19.3 0.00 0.00 0.00 23 1026.8
20260906212320 26 183 11.3 27.4 0.00 0.00 0.00 21 1026.9
20260906211820 26 294 11.3 22.5 0.00 0.00 0.00 20 1027.0
20260906211320 26 245 11.3 22.5 0.00 0.00 0.00 24 1027.0
20260906210820 26 271 11.3 22.5 0.00 0.00 0.00 25 1027.0
20260906210322 26 190 11.3 29.0 0.00 0.00 0.00 24 1027.2
20260906205822 25 253 14.5 30.6 0.00 0.00 0.00 25 1027.4
20260906205321 25 173 14.5 30.6 0.00 0.00 0.00 26 1027.3
20260906204820 26 245 14.5 30.6 0.00 0.00 0.00 24 1027.4
20260906204320 26 283 14.5 27.4 0.00 0.00 0.00 26 1027.2
20260906203820 26 267 12.9 25.7 0.00 0.00 0.00 27 1027.3
20260906203320 26 178 12.9 25.7 0.00 0.00 0.00 25 1027.3
20260906203051 26 221 12.9 24.1 0.00 0.00 0.00 22 1027.2
20260906202321 26 252 12.9 24.1 0.00 0.00 0.00 23 1027.3
20260906201820 26 259 11.3 24.1 0.00 0.00 0.00 25 1027.4
20260906201316 25 183 11.3 24.1 0.00 0.00 0.00 24 1027.4
20260906201046 25 193 12.9 29.0 0.00 0.00 0.00 24 1027.4
20260906200303 25 194 14.5 29.0 0.00 0.00 0.00 25 1027.5
20260906200029 25 211 12.9 22.5 0.00 0.00 0.00 24 1027.5
20260906195256 25 190 12.9 29.0 0.00 0.00 0.00 25 1027.4
20260906194756 26 195 9.7 29.0 0.00 0.00 0.00 24 1027.5
20260906194255 26 173 6.4 16.1 0.00 0.00 0.00 27 1027.4
20260906193758 25 115 8.0 16.1 0.00 0.00 0.00 27 1027.4
20260906193257 26 130 9.7 22.5 0.00 0.00 0.00 27 1027.7
20260906192755 25 221 11.3 22.5 0.00 0.00 0.00 29 1027.7
20260906192526 26 190 11.3 27.4 0.00 0.00 0.00 28 1027.8
20260906191755 25 190 11.3 27.4 0.00 0.00 0.00 29 1027.7
20260906191254 26 278 9.7 20.9 0.00 0.00 0.00 30 1027.8
20260906190754 26 226 8.0 20.9 0.00 0.00 0.00 29 1027.9
20260906190254 25 171 6.4 19.3 0.00 0.00 0.00 30 1027.9
20260906190026 25 123 6.4 22.5 0.00 0.00 0.00 29 1027.9
20260906185254 25 127 4.8 22.5 0.00 0.00 0.00 28 1028.1
20260906184253 25 169 4.8 16.1 0.00 0.00 0.00 30 1028.2
20260906183754 25 246 4.8 16.1 0.00 0.00 0.00 29 1028.3
20260906183249 25 171 3.2 16.1 0.00 0.00 0.00 30 1028.3
20260906182743 25 321 3.2 12.9 0.00 0.00 0.00 33 1028.3
20260906182236 25 306 6.4 12.9 0.00 0.00 0.00 35 1028.5
20260906181731 25 169 8.0 14.5 0.00 0.00 0.00 32 1028.6
20260906181224 25 219 6.4 14.5 0.00 0.00 0.00 33 1028.7
20260906180718 25 288 4.8 12.9 0.00 0.00 0.00 34 1028.9
20260906180212 24 70 4.8 14.5 0.00 0.00 0.00 36 1029.0
20260906175706 24 139 6.4 17.7 0.00 0.00 0.00 35 1029.1
20260906175200 24 161 6.4 17.7 0.00 0.00 0.00 35 1029.3
20260906174655 24 275 6.4 16.1 0.00 0.00 0.00 34 1029.4
20260906174419 24 225 3.2 16.1 0.00 0.00 0.00 35 1029.5
20260906173642 24 148 1.6 9.7 0.00 0.00 0.00 34 1029.6
20260906173136 24 265 1.6 9.7 0.00 0.00 0.00 36 1029.8
20260906172630 24 212 1.6 6.4 0.00 0.00 0.00 37 1029.9
20260906172125 23 274 1.6 6.4 0.00 0.00 0.00 37 1029.9
20260906171112 23 167 3.2 9.7 0.00 0.00 0.00 35 1030.0
20260906170606 23 198 3.2 9.7 0.00 0.00 0.00 39 1030.0
20260906170100 23 302 4.8 11.3 0.00 0.00 0.00 38 1030.2
20260906165555 23 197 4.8 11.3 0.00 0.00 0.00 38 1030.0
20260906165319 22 182 4.8 14.5 0.00 0.00 0.00 40 1030.0
20260906164542 22 281 6.4 14.5 0.00 0.00 0.00 40 1030.0
20260906164318 22 183 6.4 12.9 0.00 0.00 0.00 41 1029.9
20260906163801 22 195 6.4 12.9 0.00 0.00 0.00 41 1029.8
20260906162518 22 192 6.4 12.9 0.00 0.00 0.00 42 1029.8
20260906162012 22 258 4.8 12.9 0.00 0.00 0.00 41 1029.8
20260906161507 22 218 4.8 11.3 0.00 0.00 0.00 42 1029.8
20260906161001 21 193 4.8 11.3 0.00 0.00 0.00 43 1029.8
20260906160727 21 217 4.8 8.0 0.00 0.00 0.00 43 1029.6
20260906155948 21 202 4.8 9.7 0.00 0.00 0.00 49 1029.8
20260906155442 20 220 4.8 9.7 0.00 0.00 0.00 48 1029.8
20260906155207 20 237 4.8 8.0 0.00 0.00 0.00 50 1029.6
20260906154430 20 197 4.8 8.0 0.00 0.00 0.00 50 1029.6
20260906153928 19 200 6.4 8.0 0.00 0.00 0.00 51 1029.5
20260906153429 19 196 6.4 8.0 0.00 0.00 0.00 52 1029.4
20260906153159 18 218 4.8 9.7 0.00 0.00 0.00 52 1029.4
20260906152427 18 196 3.2 9.7 0.00 0.00 0.00 53 1029.4
20260906151927 18 198 1.6 6.4 0.00 0.00 0.00 56 1029.4
20260906151429 17 201 0.0 0.0 0.00 0.00 0.00 57 1029.3
20260906150925 17 192 0.0 0.0 0.00 0.00 0.00 58 1029.3
20260906150427 16 187 0.0 0.0 0.00 0.00 0.00 60 1029.4
20260906145925 16 192 0.0 4.8 0.00 0.00 0.00 59 1029.5
20260906145425 16 189 1.6 4.8 0.00 0.00 0.00 63 1029.5
20260906145155 16 192 1.6 4.8 0.00 0.00 0.00 65 1029.5
20260906144651 15 191 0.0 3.2 0.00 0.00 0.00 67 1029.5
20260906143922 14 173 0.0 0.0 0.00 0.00 0.00 70 1029.4
20260906143419 13 71 0.0 0.0 0.00 0.00 0.00 72 1029.4
20260906143147 13 71 0.0 0.0 0.00 0.00 0.00 74 1029.4
20260906142413 12 71 0.0 0.0 0.00 0.00 0.00 77 1029.4
20260906141913 12 71 0.0 0.0 0.00 0.00 0.00 81 1029.3
20260906141413 11 71 0.0 0.0 0.00 0.00 0.00 84 1029.4
20260906140914 11 71 0.0 0.0 0.00 0.00 0.00 85 1029.4
20260906140408 10 71 0.0 0.0 0.00 0.00 0.00 85 1029.4
20260906135908 10 71 0.0 0.0 0.00 0.00 0.00 86 1029.3
20260906135358 10 71 0.0 0.0 0.00 0.00 0.00 86 1029.1
20260906134858 9 71 0.0 0.0 0.00 0.00 0.00 86 1029.1
20260906134359 9 71 0.0 0.0 0.00 0.00 0.00 88 1029.1
20260906133857 8 71 0.0 0.0 0.00 0.00 0.00 89 1029.0
20260906133357 8 71 0.0 0.0 0.00 0.00 0.00 88 1028.9
20260906132858 8 71 0.0 0.0 0.00 0.00 0.00 88 1029.0
20260906132629 8 71 0.0 0.0 0.00 0.00 0.00 89 1029.0
20260906131859 7 71 0.0 0.0 0.00 0.00 0.00 89 1028.9
20260906131629 7 71 0.0 0.0 0.00 0.00 0.00 89 1029.0
20260906130901 7 71 0.0 0.0 0.00 0.00 0.00 90 1029.0
20260906130355 7 71 0.0 0.0 0.00 0.00 0.00 90 1029.0
20260906125856 7 71 0.0 0.0 0.00 0.00 0.00 90 1029.0
20260906125354 7 71 0.0 0.0 0.00 0.00 0.00 89 1029.0
20260906124625 7 71 0.0 0.0 0.00 0.00 0.00 88 1029.1
20260906123854 7 71 0.0 0.0 0.00 0.00 0.00 89 1029.3
20260906123353 7 71 0.0 0.0 0.00 0.00 0.00 88 1029.1
20260906122855 7 71 0.0 0.0 0.00 0.00 0.00 88 1029.1
20260906122626 7 71 0.0 0.0 0.00 0.00 0.00 88 1029.0
20260906122122 7 71 0.0 0.0 0.00 0.00 0.00 88 1029.0
20260906120852 7 71 0.0 0.0 0.00 0.00 0.00 88 1029.0
20260906120625 7 71 0.0 0.0 0.00 0.00 0.00 88 1029.0
20260906115853 7 71 0.0 0.0 0.00 0.00 0.00 87 1029.0
20260906115623 7 71 0.0 0.0 0.00 0.00 0.00 86 1028.7
20260906114852 8 71 0.0 0.0 0.00 0.00 0.00 86 1028.6
20260906114353 8 71 0.0 0.0 0.00 0.00 0.00 85 1028.7
20260906113852 8 71 0.0 0.0 0.00 0.00 0.00 85 1028.6
20260906113353 8 71 0.0 0.0 0.00 0.00 0.00 85 1028.6
20260906112852 8 71 0.0 0.0 0.00 0.00 0.00 84 1028.6
20260906112354 8 71 0.0 0.0 0.00 0.00 0.00 83 1028.7
20260906111847 8 71 0.0 0.0 0.00 0.00 0.00 84 1028.6
20260906111613 8 71 0.0 0.0 0.00 0.00 0.00 84 1028.5
20260906110835 8 71 0.0 0.0 0.00 0.00 0.00 84 1028.5
20260906110328 8 71 0.0 0.0 0.00 0.00 0.00 83 1028.5
20260906105822 8 71 0.0 0.0 0.00 0.00 0.00 83 1028.3
20260906105548 8 71 0.0 0.0 0.00 0.00 0.00 82 1028.3
20260906104812 9 71 0.0 0.0 0.00 0.00 0.00 82 1028.3
20260906104306 9 71 0.0 0.0 0.00 0.00 0.00 82 1028.3
20260906103800 9 71 0.0 0.0 0.00 0.00 0.00 82 1028.5
20260906103253 9 71 0.0 0.0 0.00 0.00 0.00 82 1028.5
20260906102749 9 71 0.0 0.0 0.00 0.00 0.00 82 1028.5
20260906102241 9 71 0.0 0.0 0.00 0.00 0.00 82 1028.5
20260906101228 9 71 0.0 0.0 0.00 0.00 0.00 82 1028.6
20260906100722 9 71 0.0 0.0 0.00 0.00 0.00 82 1028.6
20260906100448 9 71 0.0 0.0 0.00 0.00 0.00 82 1028.6
20260906095942 9 71 0.0 0.0 0.00 0.00 0.00 83 1028.7
20260906095205 9 71 0.0 0.0 0.00 0.00 0.00 83 1028.7
20260906094932 9 71 0.0 0.0 0.00 0.00 0.00 83 1028.7
20260906094153 9 71 0.0 0.0 0.00 0.00 0.00 82 1028.6
20260906093647 9 71 0.0 0.0 0.00 0.00 0.00 83 1028.7
20260906093141 8 71 0.0 0.0 0.00 0.00 0.00 83 1028.7
20260906092635 9 71 0.0 0.0 0.00 0.00 0.00 82 1028.7
20260906092130 8 71 0.0 0.0 0.00 0.00 0.00 83 1028.7
20260906091623 8 71 0.0 0.0 0.00 0.00 0.00 82 1028.7
20260906091349 9 71 0.0 0.0 0.00 0.00 0.00 82 1028.6
20260906090611 9 71 0.0 0.0 0.00 0.00 0.00 82 1028.7
20260906090105 9 71 0.0 0.0 0.00 0.00 0.00 82 1028.7
20260906085558 9 71 0.0 0.0 0.00 0.00 0.00 81 1028.7
20260906085054 9 71 0.0 0.0 0.00 0.00 0.00 81 1028.6
20260906084547 9 71 0.0 0.0 0.00 0.00 0.00 81 1028.5
20260906084041 9 71 0.0 0.0 0.00 0.00 0.00 81 1028.6
20260906083806 9 71 0.0 0.0 0.00 0.00 0.00 80 1028.6
20260906083030 9 71 0.0 0.0 0.00 0.00 0.00 80 1028.7
20260906082754 9 71 0.0 0.0 0.00 0.00 0.00 80 1028.7
20260906082022 9 71 0.0 0.0 0.00 0.00 0.00 80 1028.7
20260906081510 9 71 0.0 0.0 0.00 0.00 0.00 80 1028.9
20260906081235 9 71 0.0 0.0 0.00 0.00 0.00 80 1028.9
20260906075954 10 71 0.0 0.0 0.00 0.00 0.00 79 1028.7
20260906075446 10 71 0.0 0.0 0.00 0.00 0.00 79 1029.0
20260906075212 10 71 0.0 0.0 0.00 0.00 0.00 78 1029.0
20260906074705 10 71 0.0 0.0 0.00 0.00 0.00 77 1029.0
20260906073928 10 71 0.0 3.2 0.00 0.00 0.00 77 1029.1
20260906073423 10 71 0.0 3.2 0.00 0.00 0.00 76 1029.1
20260906072918 10 71 0.0 0.0 0.00 0.00 0.00 76 1029.1
20260906072410 10 71 0.0 1.6 0.00 0.00 0.00 76 1029.0
20260906071907 10 71 0.0 1.6 0.00 0.00 0.00 76 1029.0
20260906071358 10 71 1.6 4.8 0.00 0.00 0.00 76 1029.0
20260906070902 10 71 1.6 4.8 0.00 0.00 0.00 77 1029.0
20260906070348 10 71 0.0 1.6 0.00 0.00 0.00 76 1029.0
20260906065841 10 71 0.0 1.6 0.00 0.00 0.00 76 1029.0
20260906065334 11 71 0.0 1.6 0.00 0.00 0.00 75 1028.9
20260906064829 11 71 0.0 4.8 0.00 0.00 0.00 75 1029.0
20260906064321 11 73 0.0 4.8 0.00 0.00 0.00 75 1029.0
20260906063816 11 26 0.0 4.8 0.00 0.00 0.00 75 1029.0
20260906063310 10 26 0.0 4.8 0.00 0.00 0.00 76 1029.0
20260906062804 10 19 0.0 3.2 0.00 0.00 0.00 76 1029.0
20260906062259 10 19 1.6 4.8 0.00 0.00 0.00 76 1029.0
20260906061753 10 19 0.0 4.8 0.00 0.00 0.00 76 1029.1
20260906061245 10 57 0.0 0.0 0.00 0.00 0.00 74 1029.0
20260906060740 10 57 0.0 0.0 0.00 0.00 0.00 74 1029.1
20260906060240 10 57 0.0 1.6 0.00 0.00 0.00 74 1029.0
20260906055738 10 57 0.0 4.8 0.00 0.00 0.00 74 1029.1
20260906055237 10 57 0.0 4.8 0.00 0.00 0.00 74 1029.3
20260906054739 10 57 1.6 4.8 0.00 0.00 0.00 73 1029.3
20260906054238 10 57 1.6 6.4 0.00 0.00 0.00 73 1029.3
20260906053735 11 71 0.0 6.4 0.00 0.00 0.00 73 1029.1
20260906053234 11 67 0.0 0.0 0.00 0.00 0.00 72 1029.1
20260906052733 11 67 0.0 0.0 0.00 0.00 0.00 72 1029.1
20260906052234 11 67 0.0 0.0 0.00 0.00 0.00 71 1029.0
20260906051502 11 67 0.0 0.0 0.00 0.00 0.00 70 1029.1
20260906050729 11 67 0.0 0.0 0.00 0.00 0.00 69 1029.0
20260906050229 11 67 0.0 0.0 0.00 0.00 0.00 69 1029.1
20260906045728 12 67 0.0 0.0 0.00 0.00 0.00 69 1029.1
20260906045226 12 67 0.0 0.0 0.00 0.00 0.00 68 1029.1
20260906044222 12 67 0.0 0.0 0.00 0.00 0.00 67 1029.1
20260906043715 13 67 0.0 0.0 0.00 0.00 0.00 66 1029.1
20260906042702 13 67 0.0 0.0 0.00 0.00 0.00 64 1029.1
20260906042157 13 67 0.0 0.0 0.00 0.00 0.00 63 1029.3
20260906041650 13 67 0.0 4.8 0.00 0.00 0.00 63 1029.3
20260906041143 14 67 0.0 4.8 0.00 0.00 0.00 62 1029.1
20260906040640 14 67 1.6 4.8 0.00 0.00 0.00 61 1029.1
20260906040405 14 31 1.6 4.8 0.00 0.00 0.00 60 1029.1
20260906035628 14 41 1.6 4.8 0.00 0.00 0.00 59 1029.1
20260906035122 14 63 0.0 12.9 0.00 0.00 0.00 60 1029.3
20260906034615 14 75 1.6 12.9 0.00 0.00 0.00 60 1029.3
20260906034109 14 40 4.8 16.1 0.00 0.00 0.00 62 1029.3
20260906033603 13 69 4.8 16.1 0.00 0.00 0.00 63 1029.3
20260906033057 13 59 3.2 12.9 0.00 0.00 0.00 64 1029.1
20260906032551 12 55 3.2 12.9 0.00 0.00 0.00 64 1029.1
20260906032045 12 60 1.6 6.4 0.00 0.00 0.00 66 1029.1
20260906031539 13 83 0.0 3.2 0.00 0.00 0.00 66 1029.0
20260906030527 13 74 0.0 3.2 0.00 0.00 0.00 65 1028.7
20260906030252 13 74 1.6 3.2 0.00 0.00 0.00 65 1028.6
20260906025515 13 66 1.6 4.8 0.00 0.00 0.00 63 1028.7
20260906025012 13 66 1.6 4.8 0.00 0.00 0.00 63 1028.6
20260906024503 13 77 1.6 6.4 0.00 0.00 0.00 63 1028.5
20260906023956 13 77 1.6 6.4 0.00 0.00 0.00 62 1028.5
20260906023450 14 69 0.0 4.8 0.00 0.00 0.00 61 1028.5
20260906023319 14 72 0.0 0.0 0.00 0.00 0.00 60 1028.5
20260906022440 15 72 0.0 0.0 0.00 0.00 0.00 59 1028.5
20260906022206 15 72 0.0 0.0 0.00 0.00 0.00 57 1028.3
20260906021428 15 72 0.0 0.0 0.00 0.00 0.00 58 1028.3
20260906020921 16 72 1.6 4.8 0.00 0.00 0.00 56 1028.2
20260906020415 16 72 1.6 4.8 0.00 0.00 0.00 55 1028.2
20260906015909 17 53 3.2 6.4 0.00 0.00 0.00 53 1028.1
20260906014856 17 24 1.6 4.8 0.00 0.00 0.00 51 1028.1
20260906014350 18 22 1.6 4.8 0.00 0.00 0.00 50 1028.1
20260906013851 18 49 0.0 0.0 0.00 0.00 0.00 49 1027.9
20260906013351 18 49 0.0 4.8 0.00 0.00 0.00 48 1027.9
20260906013120 18 49 0.0 4.8 0.00 0.00 0.00 48 1027.9
20260906012348 18 49 1.6 6.4 0.00 0.00 0.00 48 1027.9
20260906011846 18 73 3.2 14.5 0.00 0.00 0.00 46 1027.8
20260906011344 19 73 3.2 14.5 0.00 0.00 0.00 46 1027.8
20260906010840 19 76 4.8 14.5 0.00 0.00 0.00 45 1027.8
20260906010341 19 26 6.4 16.1 0.00 0.00 0.00 45 1027.7
20260906005843 19 68 6.4 16.1 0.00 0.00 0.00 44 1027.8
20260906005611 20 56 8.0 16.1 0.00 0.00 0.00 44 1027.8
20260906004843 20 26 8.0 14.5 0.00 0.00 0.00 44 1027.9
20260906004341 20 56 8.0 16.1 0.00 0.00 0.00 44 1027.9
20260906003838 20 101 9.7 19.3 0.00 0.00 0.00 44 1027.9
20260906003340 20 93 8.0 19.3 0.00 0.00 0.00 43 1027.8
20260906003108 20 22 9.7 19.3 0.00 0.00 0.00 43 1027.9
20260906002338 20 68 9.7 24.1 0.00 0.00 0.00 42 1027.9
20260906001837 20 88 8.0 24.1 0.00 0.00 0.00 42 1027.8
20260906001337 21 78 9.7 22.5 0.00 0.00 0.00 41 1027.9
20260906000832 20 61 9.7 25.7 0.00 0.00 0.00 41 1027.9
20260906000326 20 84 11.3 25.7 0.00 0.00 0.00 41 1027.9
20260905235820 20 68 8.0 24.1 0.00 0.00 0.00 43 1027.8
20260905235322 19 95 3.2 19.3 0.00 0.00 0.00 50 1027.8
20260905234821 18 106 3.2 6.4 0.00 0.00 0.00 55 1028.2
20260905234321 18 355 4.8 11.3 0.00 0.00 0.00 59 1028.6
20260905233818 19 78 4.8 11.3 0.00 0.00 0.00 59 1028.6
20260905233316 20 77 1.6 8.0 0.00 0.00 0.00 60 1028.5
20260905232816 20 327 0.0 4.8 0.00 0.00 0.00 53 1028.6
20260905232314 20 331 1.6 6.4 0.00 0.00 0.00 49 1028.6
20260905231813 20 13 3.2 6.4 0.00 0.00 0.00 47 1028.5
20260905231314 20 44 4.8 12.9 0.00 0.00 0.00 45 1028.3
20260905230813 20 76 6.4 12.9 0.00 0.00 0.00 44 1028.2
20260905230320 20 18 6.4 14.5 0.00 0.00 0.00 44 1028.2
20260905225846 20 32 8.0 16.1 0.00 0.00 0.00 45 1028.1
20260905225312 20 22 9.7 19.3 0.00 0.00 0.00 44 1028.1
20260905224813 20 65 11.3 19.3 0.00 0.00 0.00 45 1028.1
20260905224309 20 81 11.3 25.7 0.00 0.00 0.00 43 1027.9
20260905223808 20 67 11.3 25.7 0.00 0.00 0.00 43 1028.1
20260905223311 21 69 12.9 25.7 0.00 0.00 0.00 42 1028.1
20260905222808 21 112 12.9 25.7 0.00 0.00 0.00 42 1027.9